| time (UTC) | temp F | wind direction | speed MPH | gust MPH | rain 1hr in | rain 24hr in | rain mn in | humidity % | barometer mb |
| 20260506201704 | 52 | 60 | 3.0 | 8.0 | 0.00 | 0.00 | 0.00 | 67 | 1014.4 |
| 20260506201204 | 52 | 5 | 1.0 | 6.0 | 0.00 | 0.00 | 0.00 | 66 | 1014.4 |
| 20260506200703 | 52 | 355 | 0.0 | 3.0 | 0.00 | 0.00 | 0.00 | 67 | 1014.4 |
| 20260506200204 | 52 | 61 | 1.0 | 7.0 | 0.00 | 0.00 | 0.00 | 67 | 1014.4 |
| 20260506194704 | 53 | 309 | 0.0 | 2.0 | 0.00 | 0.00 | 0.00 | 68 | 1014.0 |
| 20260506194204 | 53 | 313 | 1.0 | 3.0 | 0.00 | 0.00 | 0.00 | 68 | 1013.9 |
| 20260506191704 | 54 | 333 | 1.0 | 5.0 | 0.00 | 0.00 | 0.00 | 67 | 1013.7 |
| 20260506191204 | 54 | 302 | 1.0 | 3.0 | 0.00 | 0.00 | 0.00 | 67 | 1013.7 |
| 20260506190704 | 54 | 304 | 1.0 | 2.0 | 0.00 | 0.00 | 0.00 | 67 | 1013.7 |
| 20260506190204 | 54 | 304 | 2.0 | 5.0 | 0.00 | 0.00 | 0.00 | 66 | 1013.6 |
| 20260506184704 | 54 | 350 | 1.0 | 3.0 | 0.00 | 0.00 | 0.00 | 65 | 1013.6 |
| 20260506184203 | 54 | 353 | 1.0 | 5.0 | 0.00 | 0.00 | 0.00 | 66 | 1013.6 |
| 20260506183704 | 55 | 357 | 1.0 | 3.0 | 0.00 | 0.00 | 0.00 | 65 | 1013.5 |
| 20260506181704 | 55 | 20 | 3.0 | 6.0 | 0.00 | 0.00 | 0.00 | 64 | 1013.3 |
| 20260506181204 | 55 | 315 | 2.0 | 6.0 | 0.00 | 0.00 | 0.00 | 64 | 1013.3 |
| 20260506180704 | 55 | 337 | 2.0 | 6.0 | 0.00 | 0.00 | 0.00 | 63 | 1013.2 |
| 20260506180203 | 55 | 352 | 1.0 | 9.0 | 0.00 | 0.00 | 0.00 | 63 | 1013.2 |
| 20260506174704 | 55 | 304 | 4.0 | 9.0 | 0.00 | 0.00 | 0.00 | 63 | 1013.1 |
| 20260506174204 | 55 | 299 | 3.0 | 9.0 | 0.00 | 0.00 | 0.00 | 62 | 1013.1 |
| 20260506173704 | 55 | 12 | 4.0 | 9.0 | 0.00 | 0.00 | 0.00 | 62 | 1013.1 |
| 20260506173204 | 55 | 305 | 2.0 | 9.0 | 0.00 | 0.00 | 0.00 | 63 | 1013.0 |
| 20260506170703 | 56 | 25 | 2.0 | 5.0 | 0.00 | 0.00 | 0.00 | 63 | 1013.0 |
| 20260506170203 | 56 | 310 | 2.0 | 9.0 | 0.00 | 0.00 | 0.00 | 63 | 1013.0 |
| 20260506164704 | 57 | 73 | 2.0 | 8.0 | 0.00 | 0.00 | 0.00 | 61 | 1012.8 |
| 20260506164204 | 58 | 328 | 3.0 | 10.0 | 0.00 | 0.00 | 0.00 | 60 | 1012.9 |
| 20260506163204 | 58 | 50 | 3.0 | 12.0 | 0.00 | 0.00 | 0.00 | 58 | 1012.9 |
| 20260506161703 | 57 | 12 | 3.0 | 8.0 | 0.00 | 0.00 | 0.00 | 59 | 1012.9 |
| 20260506161204 | 57 | 53 | 6.0 | 10.0 | 0.00 | 0.00 | 0.00 | 58 | 1012.9 |
| 20260506160703 | 58 | 60 | 6.0 | 10.0 | 0.00 | 0.00 | 0.00 | 57 | 1012.9 |
| 20260506154703 | 58 | 56 | 6.0 | 13.0 | 0.00 | 0.00 | 0.00 | 58 | 1012.9 |
| 20260506154204 | 59 | 52 | 6.0 | 13.0 | 0.00 | 0.00 | 0.00 | 57 | 1012.8 |
| 20260506153204 | 59 | 308 | 4.0 | 10.0 | 0.00 | 0.00 | 0.00 | 60 | 1012.9 |
| 20260506151705 | 56 | 354 | 4.0 | 9.0 | 0.00 | 0.00 | 0.00 | 63 | 1012.9 |
| 20260506151203 | 56 | 20 | 3.0 | 12.0 | 0.00 | 0.00 | 0.00 | 62 | 1013.0 |
| 20260506150704 | 56 | 50 | 9.0 | 14.0 | 0.00 | 0.00 | 0.00 | 62 | 1013.0 |
| 20260506150205 | 57 | 11 | 3.0 | 14.0 | 0.00 | 0.00 | 0.00 | 61 | 1013.1 |
| 20260506144704 | 60 | 312 | 2.0 | 13.0 | 0.00 | 0.00 | 0.00 | 59 | 1013.1 |
| 20260506144204 | 59 | 4 | 3.0 | 10.0 | 0.00 | 0.00 | 0.00 | 60 | 1013.1 |
| 20260506143703 | 59 | 53 | 7.0 | 14.0 | 0.00 | 0.00 | 0.00 | 59 | 1013.1 |
| 20260506143203 | 59 | 359 | 6.0 | 13.0 | 0.00 | 0.00 | 0.00 | 59 | 1013.1 |
| 20260506141704 | 59 | 313 | 6.0 | 16.0 | 0.00 | 0.00 | 0.00 | 59 | 1013.1 |
| 20260506141204 | 60 | 359 | 5.0 | 14.0 | 0.00 | 0.00 | 0.00 | 59 | 1013.0 |
| 20260506140704 | 60 | 310 | 3.0 | 10.0 | 0.00 | 0.00 | 0.00 | 58 | 1013.1 |
| 20260506140204 | 58 | 66 | 5.0 | 15.0 | 0.00 | 0.00 | 0.00 | 61 | 1013.1 |
| 20260506134204 | 58 | 24 | 5.0 | 14.0 | 0.00 | 0.00 | 0.00 | 61 | 1013.1 |
| 20260506133704 | 59 | 14 | 5.0 | 15.0 | 0.00 | 0.00 | 0.00 | 59 | 1013.1 |
| 20260506133204 | 60 | 44 | 5.0 | 14.0 | 0.00 | 0.00 | 0.00 | 60 | 1013.1 |
| 20260506131704 | 58 | 27 | 3.0 | 14.0 | 0.00 | 0.00 | 0.00 | 58 | 1013.0 |
| 20260506131205 | 57 | 25 | 5.0 | 15.0 | 0.00 | 0.00 | 0.00 | 58 | 1013.1 |
| 20260506130704 | 59 | 353 | 5.0 | 14.0 | 0.00 | 0.00 | 0.00 | 55 | 1013.1 |
| 20260506130204 | 60 | 11 | 6.0 | 16.0 | 0.00 | 0.00 | 0.00 | 55 | 1013.1 |
| 20260506124704 | 60 | 327 | 6.0 | 12.0 | 0.00 | 0.00 | 0.00 | 56 | 1013.1 |
| 20260506124204 | 60 | 35 | 10.0 | 14.0 | 0.00 | 0.00 | 0.00 | 52 | 1013.0 |
| 20260506123703 | 60 | 22 | 6.0 | 13.0 | 0.00 | 0.00 | 0.00 | 56 | 1013.0 |
| 20260506123204 | 59 | 46 | 6.0 | 15.0 | 0.00 | 0.00 | 0.00 | 55 | 1013.0 |
| 20260506121203 | 58 | 43 | 6.0 | 15.0 | 0.00 | 0.00 | 0.00 | 58 | 1013.2 |
| 20260506120703 | 58 | 46 | 7.0 | 13.0 | 0.00 | 0.00 | 0.00 | 55 | 1013.1 |
| 20260506114704 | 58 | 48 | 5.0 | 17.0 | 0.00 | 0.00 | 0.00 | 54 | 1013.2 |
| 20260506114203 | 58 | 42 | 6.0 | 13.0 | 0.00 | 0.00 | 0.00 | 55 | 1013.3 |
| 20260506113704 | 58 | 310 | 8.0 | 14.0 | 0.00 | 0.00 | 0.00 | 57 | 1013.2 |
| 20260506111703 | 58 | 41 | 7.0 | 14.0 | 0.00 | 0.00 | 0.00 | 55 | 1013.3 |
| 20260506110703 | 58 | 345 | 7.0 | 14.0 | 0.00 | 0.00 | 0.00 | 55 | 1013.3 |
| 20260506110204 | 59 | 325 | 7.0 | 13.0 | 0.00 | 0.00 | 0.00 | 58 | 1013.3 |
| 20260506104704 | 58 | 313 | 6.0 | 12.0 | 0.00 | 0.00 | 0.00 | 55 | 1013.2 |
| 20260506103704 | 57 | 55 | 10.0 | 20.0 | 0.00 | 0.00 | 0.00 | 58 | 1013.3 |
| 20260506101704 | 56 | 332 | 6.0 | 15.0 | 0.00 | 0.00 | 0.00 | 64 | 1013.4 |
| 20260506101204 | 56 | 36 | 6.0 | 13.0 | 0.00 | 0.00 | 0.00 | 63 | 1013.4 |
| 20260506100704 | 56 | 341 | 5.0 | 13.0 | 0.00 | 0.00 | 0.00 | 63 | 1013.4 |
| 20260506100204 | 55 | 302 | 5.0 | 13.0 | 0.00 | 0.00 | 0.00 | 65 | 1013.5 |
| 20260506094703 | 54 | 23 | 6.0 | 13.0 | 0.00 | 0.00 | 0.00 | 64 | 1013.5 |
| 20260506094203 | 54 | 30 | 8.0 | 14.0 | 0.00 | 0.00 | 0.00 | 63 | 1013.6 |
| 20260506093704 | 54 | 8 | 6.0 | 13.0 | 0.00 | 0.00 | 0.00 | 63 | 1013.4 |
| 20260506093204 | 54 | 54 | 6.0 | 13.0 | 0.00 | 0.00 | 0.00 | 65 | 1013.4 |
| 20260506091703 | 54 | 325 | 5.0 | 14.0 | 0.00 | 0.00 | 0.00 | 68 | 1013.5 |
| 20260506091204 | 53 | 325 | 7.0 | 13.0 | 0.00 | 0.00 | 0.00 | 68 | 1013.5 |
| 20260506090703 | 53 | 321 | 6.0 | 13.0 | 0.00 | 0.00 | 0.00 | 68 | 1013.5 |
| 20260506090203 | 53 | 350 | 6.0 | 14.0 | 0.00 | 0.00 | 0.00 | 70 | 1013.5 |
| 20260506084704 | 53 | 27 | 3.0 | 15.0 | 0.00 | 0.00 | 0.00 | 70 | 1013.4 |
| 20260506084204 | 53 | 311 | 5.0 | 10.0 | 0.00 | 0.00 | 0.00 | 71 | 1013.4 |
| 20260506083704 | 52 | 313 | 6.0 | 9.0 | 0.00 | 0.00 | 0.00 | 72 | 1013.5 |
| 20260506083204 | 52 | 26 | 5.0 | 13.0 | 0.00 | 0.00 | 0.00 | 71 | 1013.5 |
| 20260506081203 | 50 | 312 | 8.0 | 12.0 | 0.00 | 0.00 | 0.00 | 74 | 1013.3 |
| 20260506080703 | 50 | 1 | 3.0 | 9.0 | 0.00 | 0.00 | 0.00 | 77 | 1013.3 |
| 20260506080204 | 49 | 38 | 5.0 | 13.0 | 0.00 | 0.00 | 0.00 | 76 | 1013.3 |
| 20260506073204 | 49 | 16 | 4.0 | 13.0 | 0.00 | 0.00 | 0.00 | 78 | 1013.4 |
| 20260506071703 | 48 | 34 | 3.0 | 13.0 | 0.00 | 0.00 | 0.00 | 78 | 1013.4 |
| 20260506071204 | 48 | 348 | 4.0 | 12.0 | 0.00 | 0.00 | 0.00 | 79 | 1013.3 |
| 20260506070704 | 48 | 52 | 5.0 | 12.0 | 0.00 | 0.00 | 0.00 | 79 | 1013.3 |
| 20260506070204 | 48 | 23 | 5.0 | 12.0 | 0.00 | 0.00 | 0.00 | 79 | 1013.3 |
| 20260506061704 | 47 | 332 | 2.0 | 7.0 | 0.00 | 0.00 | 0.00 | 82 | 1013.0 |
| 20260506060704 | 46 | 339 | 3.0 | 7.0 | 0.00 | 0.00 | 0.00 | 83 | 1013.0 |
| 20260506060204 | 46 | 34 | 3.0 | 13.0 | 0.00 | 0.00 | 0.00 | 83 | 1013.0 |
| 20260506051204 | 46 | 21 | 3.0 | 12.0 | 0.00 | 0.00 | 0.00 | 84 | 1012.8 |
| 20260506050704 | 46 | 324 | 2.0 | 5.0 | 0.00 | 0.00 | 0.00 | 84 | 1012.8 |
| 20260506050203 | 46 | 29 | 2.0 | 8.0 | 0.00 | 0.00 | 0.00 | 84 | 1012.8 |
| 20260506044704 | 46 | 0 | 4.0 | 8.0 | 0.00 | 0.00 | 0.00 | 83 | 1012.8 |
| 20260506044204 | 46 | 2 | 3.0 | 12.0 | 0.00 | 0.00 | 0.00 | 83 | 1012.7 |
| 20260506043703 | 46 | 42 | 3.0 | 9.0 | 0.00 | 0.00 | 0.00 | 83 | 1012.7 |
| 20260506041703 | 47 | 21 | 2.0 | 6.0 | 0.00 | 0.00 | 0.00 | 83 | 1012.8 |
| 20260506040705 | 47 | 352 | 4.0 | 10.0 | 0.00 | 0.00 | 0.00 | 83 | 1012.8 |
| 20260506034705 | 47 | 318 | 1.0 | 3.0 | 0.00 | 0.00 | 0.00 | 84 | 1012.7 |
| 20260506034204 | 47 | 41 | 3.0 | 10.0 | 0.00 | 0.00 | 0.00 | 84 | 1012.8 |
| 20260506033704 | 47 | 52 | 3.0 | 9.0 | 0.00 | 0.00 | 0.00 | 84 | 1012.7 |
| 20260506033204 | 48 | 22 | 3.0 | 9.0 | 0.00 | 0.00 | 0.00 | 84 | 1012.6 |
| 20260506031705 | 48 | 46 | 1.0 | 3.0 | 0.00 | 0.00 | 0.00 | 84 | 1012.8 |
| 20260506031203 | 48 | 344 | 2.0 | 12.0 | 0.00 | 0.00 | 0.00 | 84 | 1012.8 |
| 20260506030204 | 48 | 311 | 2.0 | 6.0 | 0.00 | 0.00 | 0.00 | 84 | 1012.8 |
| 20260506024704 | 48 | 25 | 2.0 | 6.0 | 0.00 | 0.00 | 0.00 | 84 | 1012.7 |
| 20260506024204 | 48 | 342 | 2.0 | 6.0 | 0.00 | 0.00 | 0.00 | 84 | 1012.8 |
| 20260506023704 | 49 | 8 | 1.0 | 7.0 | 0.00 | 0.00 | 0.00 | 84 | 1012.7 |
| 20260506023204 | 49 | 20 | 4.0 | 10.0 | 0.00 | 0.00 | 0.00 | 84 | 1012.7 |
| 20260506021703 | 49 | 17 | 3.0 | 9.0 | 0.00 | 0.00 | 0.00 | 84 | 1012.7 |
| 20260506021204 | 49 | 45 | 5.0 | 14.0 | 0.00 | 0.00 | 0.00 | 84 | 1012.7 |
| 20260506020703 | 49 | 34 | 2.0 | 7.0 | 0.00 | 0.00 | 0.00 | 84 | 1012.8 |
| 20260506020204 | 49 | 316 | 2.0 | 10.0 | 0.00 | 0.00 | 0.00 | 84 | 1012.7 |
| 20260506014704 | 49 | 26 | 3.0 | 9.0 | 0.00 | 0.00 | 0.00 | 84 | 1012.8 |
| 20260506014204 | 49 | 17 | 0.0 | 5.0 | 0.00 | 0.00 | 0.00 | 84 | 1012.8 |
| 20260506013703 | 49 | 27 | 1.0 | 3.0 | 0.00 | 0.00 | 0.00 | 84 | 1012.9 |
| 20260506013204 | 49 | 15 | 1.0 | 9.0 | 0.00 | 0.00 | 0.00 | 84 | 1012.9 |
| 20260506011705 | 50 | 51 | 3.0 | 7.0 | 0.00 | 0.00 | 0.00 | 83 | 1012.8 |
| 20260506011204 | 50 | 60 | 2.0 | 10.0 | 0.00 | 0.00 | 0.00 | 83 | 1012.8 |
| 20260506010703 | 50 | 53 | 4.0 | 12.0 | 0.00 | 0.00 | 0.00 | 83 | 1012.9 |
| 20260506010203 | 50 | 46 | 2.0 | 10.0 | 0.00 | 0.00 | 0.00 | 83 | 1013.0 |
| 20260506004704 | 50 | 63 | 3.0 | 8.0 | 0.00 | 0.00 | 0.00 | 82 | 1013.0 |
| 20260506004204 | 50 | 353 | 3.0 | 10.0 | 0.00 | 0.00 | 0.00 | 81 | 1012.9 |
| 20260506003704 | 50 | 56 | 4.0 | 9.0 | 0.00 | 0.00 | 0.00 | 81 | 1012.9 |
| 20260506003203 | 51 | 37 | 2.0 | 10.0 | 0.00 | 0.00 | 0.00 | 81 | 1012.9 |
| 20260506001703 | 51 | 29 | 2.0 | 10.0 | 0.00 | 0.00 | 0.00 | 79 | 1013.0 |
| 20260506001203 | 51 | 16 | 1.0 | 6.0 | 0.00 | 0.00 | 0.00 | 79 | 1013.0 |
| 20260506000703 | 51 | 24 | 5.0 | 10.0 | 0.00 | 0.00 | 0.00 | 78 | 1012.9 |
| 20260506000205 | 51 | 59 | 6.0 | 13.0 | 0.00 | 0.00 | 0.00 | 78 | 1012.9 |
| 20260505234704 | 51 | 353 | 6.0 | 14.0 | 0.00 | 0.00 | 0.00 | 78 | 1012.9 |
| 20260505234203 | 51 | 49 | 3.0 | 14.0 | 0.00 | 0.00 | 0.00 | 79 | 1012.9 |
| 20260505233704 | 51 | 5 | 3.0 | 8.0 | 0.00 | 0.00 | 0.00 | 79 | 1012.8 |
| 20260505231705 | 52 | 42 | 4.0 | 13.0 | 0.00 | 0.00 | 0.00 | 79 | 1012.7 |
| 20260505231204 | 52 | 54 | 6.0 | 10.0 | 0.00 | 0.00 | 0.00 | 79 | 1012.7 |
| 20260505230703 | 53 | 58 | 5.0 | 10.0 | 0.00 | 0.00 | 0.00 | 78 | 1012.7 |
| 20260505224704 | 53 | 356 | 3.0 | 13.0 | 0.00 | 0.00 | 0.00 | 77 | 1012.7 |
| 20260505221704 | 54 | 22 | 3.0 | 12.0 | 0.00 | 0.00 | 0.00 | 76 | 1012.5 |
| 20260505221204 | 54 | 36 | 3.0 | 12.0 | 0.00 | 0.00 | 0.00 | 76 | 1012.5 |
| 20260505220703 | 54 | 13 | 3.0 | 10.0 | 0.00 | 0.00 | 0.00 | 76 | 1012.4 |
| 20260505214204 | 54 | 47 | 5.0 | 13.0 | 0.00 | 0.00 | 0.00 | 77 | 1012.4 |
| 20260505213704 | 54 | 51 | 3.0 | 12.0 | 0.00 | 0.00 | 0.00 | 77 | 1012.3 |
| 20260505213204 | 54 | 19 | 3.0 | 10.0 | 0.00 | 0.00 | 0.00 | 77 | 1012.4 |
| 20260505211704 | 54 | 55 | 3.0 | 14.0 | 0.00 | 0.00 | 0.00 | 77 | 1012.3 |
| 20260505210704 | 55 | 30 | 5.0 | 13.0 | 0.00 | 0.00 | 0.00 | 74 | 1012.3 |
| 20260505210204 | 55 | 9 | 3.0 | 14.0 | 0.00 | 0.00 | 0.00 | 74 | 1012.3 |
| 20260505204704 | 55 | 49 | 5.0 | 10.0 | 0.00 | 0.00 | 0.00 | 74 | 1012.2 |
| 20260505204203 | 55 | 35 | 2.0 | 10.0 | 0.00 | 0.00 | 0.00 | 74 | 1012.3 |
| 20260505203704 | 55 | 54 | 5.0 | 10.0 | 0.00 | 0.00 | 0.00 | 74 | 1012.2 |